QPF
0.00 0.00 0.00 0.00 0.00 0.00 0.00 0.00 0.01 0.03 0.04 0.03 0.03 0.05 0.05 0.04 0.02 0.02 0.05 0.06 0.05 0.05 0.04 0.04 0.03 0.02 0.01 0.01 0.01 0.01 0.01 0.01 0.01 0.02 0.02 0.01 0.01 0.00 0.01 0.01 0.00 0.00 0.00 0.00
0.00 0.00 0.00 0.00 0.00 0.00 0.00 0.01 0.05 0.08 0.05 0.03 0.03 0.07 0.07 0.05 0.04 0.03 0.03 0.05 0.08 0.09 0.06 0.04 0.03 0.02 0.01 0.01 0.02 0.02 0.01 0.02 0.02 0.02 0.02 0.01 0.01 0.01 0.01 0.01 0.01 0.00 0.00 0.01
0.00 0.00 0.00 0.00 0.00 0.00 0.01 0.04 0.06 0.06 0.07 0.08 0.06 0.10 0.11 0.11 0.06 0.04 0.05 0.06 0.06 0.06 0.05 0.05 0.05 0.04 0.02 0.02 0.02 0.03 0.03 0.02 0.02 0.02 0.01 0.01 0.00 0.00 0.01 0.01 0.01 0.00 0.00 0.00
0.00 0.00 0.00 0.01 0.00 0.01 0.02 0.03 0.03 0.05 0.10 0.09 0.05 0.07 0.10 0.08 0.05 0.03 0.03 0.04 0.05 0.06 0.04 0.02 0.04 0.07 0.08 0.06 0.04 0.03 0.03 0.02 0.03 0.02 0.01 0.01 0.01 0.01 0.02 0.02 0.02 0.01 0.01 0.00
0.00 0.00 0.01 0.01 0.01 0.01 0.01 0.03 0.04 0.06 0.10 0.08 0.04 0.04 0.06 0.05 0.03 0.02 0.01 0.02 0.03 0.05 0.03 0.02 0.03 0.05 0.06 0.05 0.05 0.06 0.05 0.03 0.02 0.03 0.02 0.02 0.01 0.02 0.04 0.05 0.04 0.02 0.01 0.01
0.00 0.01 0.01 0.01 0.01 0.01 0.01 0.04 0.07 0.05 0.04 0.05 0.06 0.06 0.05 0.04 0.02 0.02 0.01 0.02 0.02 0.02 0.02 0.02 0.02 0.05 0.06 0.05 0.05 0.06 0.06 0.06 0.04 0.03 0.02 0.02 0.03 0.03 0.05 0.05 0.05 0.03 0.03 0.02
0.00 0.01 0.01 0.02 0.01 0.01 0.03 0.03 0.04 0.03 0.02 0.04 0.04 0.04 0.03 0.03 0.03 0.03 0.02 0.02 0.03 0.02 0.01 0.01 0.01 0.02 0.04 0.06 0.06 0.05 0.07 0.07 0.05 0.05 0.05 0.05 0.05 0.05 0.06 0.07 0.08 0.06 0.06 0.06
0.01 0.01 0.01 0.01 0.01 0.01 0.02 0.02 0.02 0.03 0.03 0.03 0.04 0.03 0.03 0.03 0.03 0.03 0.02 0.01 0.02 0.02 0.01 0.01 0.01 0.02 0.03 0.04 0.05 0.05 0.06 0.10 0.11 0.09 0.06 0.05 0.06 0.06 0.07 0.08 0.09 0.10 0.11 0.12
0.01 0.01 0.01 0.01 0.01 0.02 0.02 0.02 0.02 0.02 0.02 0.02 0.04 0.04 0.03 0.05 0.05 0.04 0.02 0.01 0.01 0.01 0.01 0.01 0.02 0.03 0.04 0.07 0.07 0.07 0.09 0.11 0.14 0.12 0.08 0.06 0.07 0.07 0.08 0.09 0.09 0.09 0.10 0.10
0.01 0.02 0.02 0.02 0.02 0.03 0.04 0.05 0.07 0.05 0.04 0.04 0.03 0.03 0.03 0.02 0.02 0.02 0.02 0.01 0.01 0.01 0.01 0.01 0.02 0.03 0.05 0.11 0.14 0.12 0.09 0.08 0.09 0.09 0.08 0.08 0.07 0.08 0.09 0.08 0.08 0.09 0.10 0.12
0.02 0.03 0.03 0.03 0.05 0.05 0.06 0.06 0.11 0.12 0.09 0.08 0.07 0.04 0.02 0.01 0.01 0.01 0.01 0.01 0.01 0.01 0.01 0.01 0.02 0.03 0.05 0.06 0.08 0.11 0.10 0.07 0.07 0.07 0.07 0.05 0.06 0.07 0.08 0.08 0.09 0.10 0.10 0.10
0.03 0.03 0.03 0.03 0.04 0.05 0.04 0.06 0.07 0.08 0.08 0.08 0.07 0.06 0.04 0.02 0.02 0.01 0.01 0.01 0.01 0.01 0.02 0.02 0.03 0.05 0.07 0.08 0.07 0.06 0.06 0.07 0.07 0.07 0.06 0.05 0.05 0.06 0.08 0.05 0.05 0.06 0.05 0.05
0.02 0.02 0.03 0.04 0.03 0.03 0.04 0.06 0.11 0.13 0.11 0.08 0.05 0.04 0.03 0.03 0.03 0.03 0.02 0.02 0.02 0.02 0.02 0.02 0.03 0.05 0.09 0.17 0.17 0.11 0.08 0.08 0.07 0.06 0.06 0.06 0.06 0.04 0.04 0.04 0.04 0.05 0.05 0.05
0.04 0.05 0.05 0.05 0.06 0.07 0.09 0.11 0.12 0.14 0.10 0.08 0.06 0.06 0.06 0.06 0.05 0.05 0.05 0.05 0.05 0.04 0.03 0.03 0.03 0.03 0.05 0.08 0.08 0.07 0.08 0.08 0.07 0.07 0.06 0.05 0.04 0.03 0.03 0.04 0.04 0.04 0.04 0.02
0.05 0.07 0.08 0.08 0.10 0.12 0.10 0.08 0.08 0.07 0.08 0.08 0.08 0.09 0.10 0.10 0.09 0.08 0.07 0.05 0.05 0.04 0.03 0.03 0.03 0.03 0.03 0.03 0.03 0.04 0.05 0.05 0.05 0.04 0.03 0.02 0.02 0.02 0.03 0.03 0.02 0.02 0.01 0.02
0.04 0.06 0.09 0.09 0.12 0.13 0.13 0.10 0.08 0.07 0.05 0.06 0.09 0.13 0.15 0.09 0.08 0.10 0.09 0.10 0.09 0.07 0.05 0.04 0.04 0.03 0.03 0.02 0.02 0.03 0.03 0.04 0.04 0.03 0.03 0.02 0.02 0.02 0.02 0.02 0.02 0.02 0.02 0.02
0.03 0.04 0.09 0.13 0.13 0.12 0.13 0.12 0.09 0.09 0.08 0.07 0.06 0.07 0.09 0.07 0.06 0.07 0.07 0.07 0.09 0.08 0.05 0.04 0.03 0.02 0.02 0.03 0.03 0.03 0.03 0.04 0.04 0.04 0.04 0.04 0.03 0.02 0.02 0.02 0.02 0.01 0.01 0.02
0.02 0.05 0.10 0.15 0.13 0.09 0.09 0.09 0.08 0.08 0.09 0.08 0.07 0.05 0.04 0.04 0.05 0.05 0.05 0.05 0.07 0.08 0.07 0.06 0.05 0.03 0.02 0.02 0.02 0.03 0.04 0.04 0.04 0.04 0.04 0.04 0.03 0.03 0.02 0.01 0.01 0.01 0.01 0.01
0.05 0.07 0.09 0.13 0.12 0.07 0.07 0.07 0.06 0.06 0.06 0.07 0.06 0.05 0.03 0.03 0.04 0.05 0.05 0.06 0.06 0.06 0.04 0.04 0.04 0.03 0.02 0.02 0.02 0.02 0.02 0.02 0.03 0.04 0.04 0.03 0.03 0.02 0.02 0.02 0.01 0.01 0.01 0.01
0.09 0.11 0.17 0.17 0.11 0.10 0.09 0.06 0.04 0.04 0.06 0.07 0.07 0.05 0.04 0.05 0.06 0.06 0.06 0.07 0.07 0.06 0.05 0.04 0.03 0.03 0.03 0.02 0.02 0.01 0.01 0.02 0.01 0.01 0.01 0.01 0.01 0.01 0.01 0.01 0.01 0.01 0.01 0.01
0.09 0.12 0.13 0.12 0.09 0.08 0.06 0.05 0.05 0.05 0.06 0.06 0.06 0.05 0.05 0.04 0.05 0.05 0.06 0.07 0.07 0.09 0.09 0.07 0.04 0.04 0.03 0.02 0.02 0.01 0.01 0.01 0.01 0.01 0.01 0.01 0.01 0.01 0.01 0.01 0.01 0.01 0.01 0.01
0.08 0.10 0.09 0.07 0.05 0.04 0.04 0.05 0.05 0.04 0.04 0.04 0.04 0.05 0.05 0.05 0.05 0.05 0.05 0.06 0.07 0.10 0.10 0.07 0.05 0.05 0.05 0.03 0.02 0.02 0.01 0.01 0.01 0.01 0.01 0.01 0.01 0.01 0.02 0.02 0.01 0.01 0.01 0.01
0.09 0.13 0.15 0.10 0.05 0.03 0.03 0.04 0.04 0.03 0.03 0.03 0.04 0.06 0.07 0.06 0.05 0.04 0.04 0.04 0.06 0.08 0.08 0.08 0.08 0.07 0.06 0.05 0.03 0.03 0.02 0.02 0.02 0.02 0.02 0.02 0.02 0.02 0.02 0.02 0.02 0.03 0.02 0.01
0.05 0.07 0.10 0.09 0.05 0.03 0.03 0.02 0.04 0.04 0.03 0.03 0.04 0.05 0.05 0.06 0.06 0.06 0.06 0.07 0.06 0.07 0.06 0.06 0.06 0.07 0.05 0.04 0.03 0.03 0.03 0.03 0.04 0.05 0.05 0.04 0.03 0.02 0.02 0.01 0.01 0.01 0.01 0.01
0.03 0.03 0.03 0.03 0.04 0.03 0.03 0.02 0.04 0.07 0.05 0.05 0.05 0.06 0.10 0.09 0.10 0.13 0.11 0.08 0.07 0.06 0.06 0.06 0.07 0.07 0.05 0.03 0.03 0.04 0.03 0.03 0.04 0.04 0.04 0.03 0.02 0.02 0.02 0.02 0.01 0.01 0.01 0.02
0.04 0.03 0.03 0.03 0.03 0.04 0.04 0.03 0.02 0.04 0.06 0.07 0.06 0.08 0.17 0.17 0.11 0.12 0.14 0.13 0.11 0.09 0.08 0.07 0.07 0.06 0.05 0.04 0.04 0.05 0.05 0.04 0.04 0.04 0.05 0.04 0.03 0.03 0.03 0.03 0.03 0.02 0.03 0.04
0.03 0.03 0.02 0.02 0.03 0.05 0.06 0.04 0.04 0.04 0.06 0.09 0.08 0.08 0.12 0.12 0.11 0.11 0.11 0.11 0.11 0.13 0.13 0.09 0.07 0.06 0.04 0.04 0.05 0.06 0.06 0.06 0.06 0.05 0.04 0.03 0.03 0.03 0.03 0.03 0.03 0.03 0.03 0.03
MSLP
1015.54 1015.61 1015.71 1015.88 1016.13 1016.46 1016.83 1017.19 1017.50 1017.71 1017.80 1017.78 1017.66 1017.48 1017.27 1017.05 1016.86 1016.67 1016.48 1016.26 1015.98 1015.63 1015.20 1014.70 1014.17 1013.65 1013.16 1012.76 1012.44 1012.22 1012.07 1011.97 1011.88 1011.78 1011.66 1011.50 1011.32 1011.16 1011.02 1010.95 1010.95 1011.02 1011.16 1011.33
1016.36 1016.50 1016.59 1016.69 1016.82 1016.99 1017.19 1017.40 1017.60 1017.77 1017.90 1017.97 1017.97 1017.94 1017.86 1017.74 1017.59 1017.38 1017.12 1016.79 1016.38 1015.90 1015.36 1014.79 1014.23 1013.70 1013.24 1012.87 1012.57 1012.35 1012.18 1012.02 1011.84 1011.64 1011.40 1011.13 1010.85 1010.60 1010.40 1010.27 1010.24 1010.31 1010.45 1010.64
1017.28 1017.48 1017.61 1017.68 1017.75 1017.81 1017.90 1018.01 1018.13 1018.25 1018.37 1018.47 1018.53 1018.55 1018.51 1018.40 1018.21 1017.94 1017.58 1017.12 1016.59 1016.01 1015.40 1014.80 1014.23 1013.73 1013.32 1012.98 1012.71 1012.49 1012.28 1012.04 1011.77 1011.45 1011.07 1010.67 1010.27 1009.92 1009.65 1009.47 1009.41 1009.46 1009.61 1009.82
1018.27 1018.54 1018.71 1018.80 1018.84 1018.86 1018.88 1018.91 1018.96 1019.02 1019.09 1019.16 1019.19 1019.18 1019.09 1018.92 1018.64 1018.26 1017.78 1017.21 1016.59 1015.93 1015.29 1014.69 1014.16 1013.71 1013.35 1013.05 1012.80 1012.56 1012.29 1011.97 1011.58 1011.12 1010.60 1010.07 1009.55 1009.11 1008.76 1008.54 1008.46 1008.51 1008.66 1008.89
1019.26 1019.59 1019.81 1019.93 1019.98 1019.97 1019.95 1019.92 1019.90 1019.89 1019.88 1019.86 1019.81 1019.70 1019.51 1019.21 1018.82 1018.32 1017.72 1017.06 1016.37 1015.68 1015.04 1014.47 1013.99 1013.60 1013.29 1013.03 1012.79 1012.51 1012.17 1011.74 1011.22 1010.62 1009.97 1009.32 1008.70 1008.18 1007.78 1007.54 1007.45 1007.50 1007.68 1007.94
1020.17 1020.54 1020.80 1020.95 1021.01 1021.00 1020.94 1020.86 1020.77 1020.67 1020.56 1020.43 1020.25 1020.00 1019.67 1019.24 1018.72 1018.10 1017.41 1016.69 1015.97 1015.28 1014.66 1014.14 1013.72 1013.39 1013.12 1012.88 1012.61 1012.28 1011.86 1011.33 1010.70 1009.98 1009.22 1008.47 1007.79 1007.22 1006.80 1006.56 1006.48 1006.56 1006.77 1007.05
1020.92 1021.30 1021.58 1021.75 1021.81 1021.80 1021.72 1021.59 1021.42 1021.23 1021.01 1020.75 1020.43 1020.04 1019.57 1019.01 1018.37 1017.66 1016.90 1016.14 1015.41 1014.75 1014.17 1013.70 1013.33 1013.05 1012.80 1012.56 1012.26 1011.88 1011.39 1010.77 1010.05 1009.25 1008.43 1007.63 1006.92 1006.35 1005.95 1005.72 1005.68 1005.78 1006.02 1006.34
1021.45 1021.83 1022.10 1022.27 1022.33 1022.31 1022.20 1022.02 1021.79 1021.52 1021.19 1020.81 1020.36 1019.85 1019.25 1018.58 1017.85 1017.06 1016.27 1015.49 1014.77 1014.12 1013.59 1013.16 1012.82 1012.56 1012.32 1012.06 1011.73 1011.31 1010.76 1010.10 1009.34 1008.51 1007.68 1006.89 1006.21 1005.68 1005.32 1005.14 1005.14 1005.28 1005.54 1005.87
1021.77 1022.11 1022.36 1022.52 1022.57 1022.53 1022.40 1022.18 1021.90 1021.55 1021.13 1020.65 1020.11 1019.49 1018.80 1018.04 1017.24 1016.41 1015.59 1014.80 1014.08 1013.45 1012.93 1012.52 1012.19 1011.92 1011.66 1011.38 1011.03 1010.58 1010.03 1009.36 1008.62 1007.83 1007.06 1006.35 1005.75 1005.30 1005.01 1004.90 1004.94 1005.11 1005.38 1005.70
1021.89 1022.20 1022.42 1022.56 1022.59 1022.53 1022.37 1022.13 1021.80 1021.40 1020.93 1020.38 1019.77 1019.08 1018.32 1017.51 1016.67 1015.80 1014.95 1014.15 1013.42 1012.78 1012.24 1011.80 1011.44 1011.14 1010.85 1010.54 1010.18 1009.73 1009.20 1008.60 1007.93 1007.25 1006.60 1006.01 1005.54 1005.21 1005.03 1004.99 1005.08 1005.27 1005.53 1005.83
1021.89 1022.15 1022.35 1022.45 1022.47 1022.39 1022.22 1021.96 1021.61 1021.18 1020.68 1020.09 1019.44 1018.71 1017.92 1017.08 1016.20 1015.30 1014.42 1013.58 1012.81 1012.12 1011.52 1011.02 1010.59 1010.23 1009.89 1009.55 1009.19 1008.77 1008.31 1007.81 1007.28 1006.76 1006.28 1005.87 1005.57 1005.37 1005.31 1005.35 1005.48 1005.69 1005.94 1006.21
1021.81 1022.04 1022.21 1022.29 1022.29 1022.20 1022.02 1021.75 1021.40 1020.96 1020.45 1019.86 1019.19 1018.45 1017.65 1016.78 1015.88 1014.95 1014.02 1013.12 1012.28 1011.50 1010.81 1010.20 1009.68 1009.22 1008.82 1008.44 1008.08 1007.72 1007.35 1006.98 1006.63 1006.30 1006.03 1005.82 1005.71 1005.68 1005.73 1005.86 1006.04 1006.26 1006.50 1006.74
1021.72 1021.91 1022.05 1022.11 1022.09 1021.99 1021.81 1021.55 1021.21 1020.78 1020.28 1019.70 1019.04 1018.30 1017.49 1016.62 1015.69 1014.73 1013.75 1012.77 1011.83 1010.93 1010.11 1009.38 1008.73 1008.16 1007.68 1007.26 1006.90 1006.59 1006.33 1006.11 1005.93 1005.82 1005.76 1005.77 1005.84 1005.98 1006.16 1006.39 1006.63 1006.87 1007.10 1007.32
1021.60 1021.77 1021.87 1021.92 1021.89 1021.79 1021.61 1021.35 1021.02 1020.61 1020.13 1019.57 1018.93 1018.21 1017.41 1016.53 1015.59 1014.59 1013.55 1012.49 1011.44 1010.42 1009.47 1008.59 1007.80 1007.12 1006.54 1006.07 1005.71 1005.45 1005.27 1005.19 1005.19 1005.27 1005.41 1005.62 1005.88 1006.18 1006.49 1006.81 1007.12 1007.40 1007.66 1007.89
1021.45 1021.58 1021.67 1021.69 1021.65 1021.54 1021.36 1021.11 1020.79 1020.40 1019.94 1019.40 1018.79 1018.09 1017.31 1016.44 1015.49 1014.47 1013.38 1012.25 1011.11 1009.98 1008.90 1007.89 1006.97 1006.16 1005.50 1004.97 1004.59 1004.35 1004.25 1004.28 1004.42 1004.66 1004.98 1005.36 1005.78 1006.22 1006.66 1007.08 1007.47 1007.81 1008.12 1008.40
1021.23 1021.33 1021.39 1021.39 1021.33 1021.21 1021.02 1020.77 1020.45 1020.08 1019.64 1019.12 1018.54 1017.87 1017.12 1016.28 1015.34 1014.31 1013.21 1012.04 1010.84 1009.63 1008.45 1007.33 1006.30 1005.40 1004.65 1004.07 1003.66 1003.43 1003.36 1003.46 1003.70 1004.05 1004.50 1005.02 1005.57 1006.13 1006.68 1007.20 1007.68 1008.11 1008.49 1008.83
1020.92 1020.99 1021.02 1020.99 1020.91 1020.77 1020.57 1020.30 1019.99 1019.61 1019.18 1018.69 1018.14 1017.51 1016.79 1015.99 1015.09 1014.09 1013.00 1011.84 1010.62 1009.38 1008.16 1006.98 1005.89 1004.92 1004.11 1003.48 1003.03 1002.79 1002.73 1002.86 1003.15 1003.57 1004.10 1004.70 1005.34 1005.99 1006.63 1007.24 1007.81 1008.33 1008.79 1009.22
1020.51 1020.55 1020.55 1020.50 1020.39 1020.22 1020.00 1019.72 1019.39 1019.01 1018.58 1018.11 1017.58 1016.98 1016.32 1015.57 1014.73 1013.80 1012.77 1011.66 1010.49 1009.28 1008.06 1006.89 1005.78 1004.79 1003.95 1003.28 1002.81 1002.54 1002.47 1002.60 1002.89 1003.33 1003.89 1004.53 1005.21 1005.92 1006.62 1007.30 1007.94 1008.53 1009.08 1009.59
1020.03 1020.05 1020.02 1019.95 1019.81 1019.61 1019.36 1019.05 1018.70 1018.31 1017.87 1017.41 1016.90 1016.34 1015.73 1015.05 1014.30 1013.45 1012.53 1011.52 1010.44 1009.32 1008.18 1007.06 1006.00 1005.04 1004.21 1003.54 1003.05 1002.76 1002.67 1002.76 1003.03 1003.45 1003.98 1004.61 1005.30 1006.02 1006.75 1007.46 1008.13 1008.78 1009.38 1009.94
1019.54 1019.53 1019.49 1019.39 1019.23 1019.00 1018.72 1018.38 1018.00 1017.58 1017.14 1016.67 1016.18 1015.66 1015.10 1014.49 1013.83 1013.09 1012.29 1011.41 1010.47 1009.48 1008.47 1007.46 1006.50 1005.61 1004.83 1004.20 1003.72 1003.42 1003.30 1003.35 1003.57 1003.94 1004.43 1005.01 1005.66 1006.35 1007.05 1007.75 1008.43 1009.08 1009.69 1010.27
1019.07 1019.06 1019.00 1018.88 1018.69 1018.45 1018.13 1017.77 1017.36 1016.92 1016.45 1015.98 1015.49 1014.99 1014.47 1013.93 1013.35 1012.73 1012.05 1011.32 1010.54 1009.71 1008.85 1008.00 1007.17 1006.40 1005.71 1005.13 1004.69 1004.40 1004.26 1004.28 1004.45 1004.74 1005.16 1005.67 1006.25 1006.87 1007.51 1008.16 1008.80 1009.41 1010.00 1010.55
1018.67 1018.65 1018.58 1018.45 1018.25 1017.99 1017.65 1017.26 1016.83 1016.36 1015.87 1015.38 1014.89 1014.39 1013.90 1013.41 1012.90 1012.37 1011.82 1011.22 1010.59 1009.93 1009.24 1008.56 1007.88 1007.25 1006.68 1006.19 1005.81 1005.54 1005.40 1005.39 1005.51 1005.74 1006.07 1006.49 1006.97 1007.50 1008.05 1008.62 1009.18 1009.72 1010.24 1010.72
1018.35 1018.32 1018.25 1018.12 1017.91 1017.63 1017.28 1016.88 1016.42 1015.92 1015.41 1014.90 1014.39 1013.89 1013.41 1012.94 1012.48 1012.02 1011.55 1011.07 1010.57 1010.06 1009.53 1009.01 1008.49 1008.00 1007.55 1007.17 1006.86 1006.64 1006.52 1006.49 1006.57 1006.73 1006.99 1007.31 1007.70 1008.12 1008.57 1009.03 1009.49 1009.93 1010.36 1010.76
1018.10 1018.07 1017.99 1017.85 1017.64 1017.36 1017.00 1016.58 1016.11 1015.60 1015.07 1014.53 1013.99 1013.48 1012.98 1012.51 1012.07 1011.64 1011.23 1010.83 1010.43 1010.04 1009.64 1009.25 1008.87 1008.52 1008.19 1007.91 1007.68 1007.52 1007.42 1007.39 1007.44 1007.56 1007.75 1007.99 1008.28 1008.60 1008.94 1009.29 1009.65 1009.99 1010.32 1010.63
1017.89 1017.84 1017.76 1017.61 1017.40 1017.12 1016.76 1016.34 1015.87 1015.35 1014.80 1014.24 1013.68 1013.14 1012.62 1012.14 1011.68 1011.26 1010.87 1010.51 1010.17 1009.85 1009.54 1009.25 1008.98 1008.73 1008.51 1008.32 1008.16 1008.05 1007.98 1007.97 1008.00 1008.08 1008.22 1008.39 1008.60 1008.83 1009.09 1009.35 1009.62 1009.87 1010.12 1010.35
1017.69 1017.63 1017.53 1017.37 1017.16 1016.88 1016.53 1016.12 1015.65 1015.13 1014.58 1014.01 1013.44 1012.88 1012.33 1011.82 1011.34 1010.90 1010.50 1010.14 1009.82 1009.53 1009.28 1009.04 1008.84 1008.66 1008.51 1008.38 1008.28 1008.20 1008.16 1008.16 1008.18 1008.25 1008.34 1008.47 1008.62 1008.79 1008.98 1009.18 1009.38 1009.58 1009.78 1009.96
1017.49 1017.40 1017.28 1017.11 1016.89 1016.62 1016.28 1015.88 1015.43 1014.93 1014.40 1013.83 1013.26 1012.68 1012.12 1011.59 1011.08 1010.61 1010.19 1009.81 1009.48 1009.18 1008.93 1008.72 1008.54 1008.39 1008.27 1008.17 1008.10 1008.05 1008.02 1008.01 1008.04 1008.08 1008.15 1008.25 1008.36 1008.50 1008.65 1008.82 1008.99 1009.16 1009.34 1009.50
Thickness
5775 5786 5792 5792 5795 5798 5789 5780 5769 5772 5777 5785 5795 5800 5803 5806 5807 5809 5809 5809 5809 5808 5807 5806 5805 5804 5804 5802 5799 5796 5790 5785 5781 5778 5775 5772 5768 5765 5761 5758 5755 5751 5747 5743
5766 5781 5785 5783 5789 5792 5790 5787 5781 5779 5777 5793 5797 5800 5800 5802 5804 5802 5802 5804 5806 5806 5806 5804 5804 5803 5802 5801 5799 5796 5790 5785 5781 5777 5773 5770 5766 5762 5758 5755 5751 5748 5744 5740
5741 5761 5770 5759 5775 5780 5779 5782 5780 5769 5775 5788 5787 5790 5793 5797 5798 5797 5798 5799 5800 5801 5802 5803 5804 5803 5800 5800 5798 5793 5789 5785 5781 5776 5771 5768 5765 5760 5756 5752 5748 5744 5740 5736
5729 5741 5731 5752 5781 5784 5776 5777 5780 5779 5781 5784 5786 5787 5791 5794 5793 5793 5795 5795 5796 5798 5800 5802 5803 5802 5800 5797 5794 5790 5785 5782 5779 5774 5770 5766 5762 5757 5753 5749 5744 5740 5736 5733
5715 5717 5729 5754 5771 5772 5764 5757 5773 5773 5775 5779 5784 5782 5781 5789 5791 5790 5792 5794 5795 5798 5799 5799 5797 5796 5795 5792 5789 5785 5781 5779 5776 5772 5767 5763 5759 5755 5751 5746 5741 5737 5733 5729
5711 5712 5712 5739 5767 5778 5766 5741 5765 5769 5768 5771 5772 5756 5764 5782 5785 5786 5788 5789 5791 5793 5793 5792 5792 5791 5786 5784 5781 5778 5777 5774 5773 5769 5765 5760 5757 5753 5748 5743 5737 5733 5728 5724
5704 5705 5716 5745 5764 5768 5735 5733 5759 5763 5766 5766 5761 5762 5770 5775 5776 5779 5781 5783 5784 5784 5784 5784 5785 5784 5779 5777 5775 5775 5774 5771 5768 5764 5761 5757 5753 5748 5744 5739 5733 5728 5722 5718
5695 5694 5705 5744 5750 5740 5736 5750 5754 5756 5759 5760 5760 5765 5767 5767 5766 5768 5770 5774 5776 5775 5776 5778 5778 5776 5772 5770 5771 5770 5767 5764 5761 5758 5755 5752 5746 5742 5738 5733 5726 5721 5716 5711
5698 5700 5719 5733 5735 5741 5746 5744 5746 5748 5752 5755 5755 5755 5757 5757 5757 5758 5760 5763 5765 5765 5765 5767 5769 5768 5764 5763 5763 5761 5759 5755 5752 5749 5747 5743 5739 5734 5730 5725 5720 5715 5710 5705
5695 5703 5713 5722 5728 5733 5737 5738 5741 5744 5745 5747 5745 5746 5746 5747 5748 5748 5750 5753 5755 5755 5754 5755 5758 5759 5759 5758 5757 5754 5750 5746 5743 5740 5737 5734 5730 5726 5722 5717 5713 5709 5704 5699
5687 5696 5706 5711 5716 5722 5727 5730 5731 5734 5736 5736 5735 5735 5736 5736 5736 5738 5740 5741 5744 5745 5745 5746 5748 5749 5751 5750 5748 5744 5741 5738 5735 5731 5728 5724 5720 5717 5714 5711 5708 5703 5699 5694
5677 5688 5691 5697 5708 5715 5716 5717 5720 5722 5722 5724 5724 5725 5726 5726 5727 5729 5730 5731 5733 5735 5737 5738 5739 5740 5742 5742 5740 5735 5731 5729 5726 5722 5720 5715 5710 5705 5703 5701 5699 5697 5693 5688
5685 5690 5690 5696 5702 5705 5705 5708 5710 5710 5712 5712 5715 5717 5718 5718 5719 5721 5721 5722 5722 5724 5727 5729 5729 5730 5733 5733 5731 5728 5724 5721 5717 5714 5710 5706 5702 5698 5693 5689 5688 5685 5683 5680
5684 5685 5682 5686 5689 5695 5697 5699 5701 5701 5703 5705 5706 5707 5707 5708 5709 5709 5711 5712 5714 5715 5716 5717 5718 5720 5722 5723 5721 5718 5716 5713 5710 5706 5702 5699 5696 5692 5688 5683 5678 5674 5671 5669
5674 5677 5677 5681 5683 5685 5688 5688 5688 5688 5691 5693 5694 5695 5697 5697 5697 5699 5702 5704 5704 5704 5705 5706 5707 5709 5712 5712 5711 5709 5707 5704 5702 5699 5696 5692 5688 5683 5680 5676 5671 5666 5662 5657
5665 5668 5670 5671 5672 5673 5675 5676 5675 5677 5679 5681 5682 5684 5685 5687 5688 5689 5691 5693 5692 5692 5694 5696 5697 5700 5701 5701 5700 5699 5699 5697 5694 5690 5686 5683 5679 5675 5671 5667 5663 5659 5655 5650
5653 5653 5656 5658 5661 5663 5663 5664 5666 5668 5670 5670 5672 5674 5675 5676 5676 5678 5680 5682 5683 5684 5686 5687 5688 5691 5692 5692 5691 5690 5689 5687 5685 5681 5677 5674 5671 5667 5664 5660 5655 5651 5648 5645
5648 5649 5650 5651 5653 5653 5654 5656 5658 5659 5660 5662 5664 5665 5665 5665 5665 5668 5670 5672 5674 5674 5676 5678 5680 5682 5683 5683 5682 5681 5679 5677 5675 5672 5669 5667 5664 5660 5656 5653 5649 5645 5641 5637
5643 5642 5643 5644 5646 5645 5646 5647 5649 5650 5651 5653 5654 5655 5656 5657 5658 5660 5661 5662 5662 5663 5666 5669 5671 5672 5673 5674 5673 5671 5669 5667 5664 5662 5660 5658 5655 5652 5648 5644 5641 5637 5634 5629
5634 5635 5636 5637 5638 5638 5639 5640 5641 5642 5643 5644 5646 5647 5647 5649 5650 5651 5651 5651 5654 5656 5660 5660 5661 5662 5663 5663 5663 5661 5659 5657 5654 5652 5650 5648 5645 5642 5640 5636 5633 5630 5626 5623
5625 5627 5627 5628 5630 5632 5632 5633 5633 5634 5635 5637 5637 5637 5638 5640 5641 5642 5642 5643 5647 5650 5651 5651 5651 5652 5653 5653 5653 5651 5649 5647 5645 5642 5640 5638 5635 5633 5630 5628 5625 5622 5620 5617
5617 5618 5619 5620 5621 5622 5624 5625 5626 5626 5627 5629 5630 5630 5630 5631 5632 5634 5636 5637 5640 5642 5641 5641 5642 5643 5644 5644 5643 5641 5640 5638 5636 5633 5631 5629 5627 5624 5622 5619 5617 5615 5613 5610
5610 5611 5612 5613 5613 5614 5616 5617 5618 5619 5620 5621 5622 5623 5624 5625 5626 5627 5628 5632 5633 5633 5633 5633 5634 5635 5635 5634 5632 5631 5630 5628 5626 5625 5623 5621 5619 5617 5614 5612 5609 5607 5605 5602
5604 5605 5605 5606 5606 5606 5606 5608 5610 5612 5613 5615 5616 5617 5618 5619 5620 5623 5624 5625 5626 5626 5626 5626 5626 5626 5625 5624 5623 5622 5621 5619 5618 5617 5615 5613 5611 5609 5606 5604 5601 5599 5597 5594
5599 5598 5598 5598 5597 5597 5599 5601 5603 5604 5606 5607 5609 5611 5613 5614 5614 5615 5617 5618 5619 5618 5618 5618 5617 5616 5616 5615 5615 5614 5613 5612 5611 5609 5608 5605 5602 5600 5598 5596 5593 5591 5589 5587
5593 5593 5593 5593 5593 5593 5593 5594 5594 5596 5597 5599 5601 5604 5606 5607 5608 5608 5609 5610 5611 5610 5610 5611 5610 5608 5608 5608 5608 5607 5605 5604 5602 5601 5598 5596 5594 5591 5589 5587 5585 5582 5581 5579
5588 5588 5588 5588 5589 5589 5589 5589 5589 5590 5592 5593 5595 5598 5599 5600 5601 5601 5602 5602 5602 5602 5602 5602 5602 5601 5601 5601 5600 5599 5598 5596 5594 5592 5589 5587 5585 5583 5581 5578 5575 5573 5571 5570